Home   Weather   Lexington-Fayette   Past weeks

Flag for USA Past Weather in Lexington-Fayette, Kentucky, USA — Yesterday and Last 2 Weeks

Now
58 °F

Clear.


Feels Like: 58 °F
Forecast: 46 / 81 °F
Wind: 5 mph from Northwest

Location: Blue Grass Airport

Current Time: Apr 27, 2017 at 10:31:47 pm

Latest Report: Apr 27, 2017 at 8:54 pm


Visibility: 10 mi

Pressure: 29.84 "Hg

Humidity: 67%

Dew Point: 47 °F

Location of Lexington-FayetteLocation

Past Weather in Lexington-Fayette — Graph

°F

Lexington-Fayette Temperature Yesterday

Maximum temperature yesterday: 82 °F (at 3:54 pm)
Minimum temperature yesterday: 57 °F (at 4:54 am)
Average temperature yesterday: 70 °F

High & Low Weather Summary for the Past Weeks

 TemperatureHumidityPressure
High82 °F (Apr 15, 2:54 pm)94% (Apr 19, 8:54 am)30.36 "Hg (Apr 19, 8:54 am)
Low43 °F (Apr 23, 5:54 am)17% (Apr 13, 3:54 pm)29.57 "Hg (Apr 27, 6:54 am)
Average64 °F64%30.00 "Hg
* Reported Apr 12 8:54 pm — Apr 27 8:54 pm, Lexington-Fayette, Weather by CustomWeather, © 2017

Note: Actual official high and low records may vary slightly from our data, if they occured in-between our weather recording intervals... More about our weather records

Advertising

Lexington-Fayette Weather History for the Previous 24 Hours

Scroll right to see more
 ConditionsComfort  
Time TempWeatherWind HumidityBarometerVisibility
8:54 pm
Thu, Apr 27
58 °FClear.5 mph67%29.84 "Hg10 mi
7:54 pm62 °FSunny.10 mph58%29.83 "Hg10 mi
6:54 pm65 °FSunny.13 mph54%29.81 "Hg10 mi
5:54 pm68 °FSunny.13 mph55%29.78 "Hg10 mi
4:54 pm68 °FPassing clouds.14 mph57%29.75 "Hg10 mi
3:54 pm72 °FPassing clouds.14 mph55%29.72 "Hg10 mi
2:54 pm71 °FBroken clouds.21 mph53%29.70 "Hg10 mi
1:54 pm72 °FBroken clouds.18 mph57%29.68 "Hg10 mi
12:54 pm74 °FScattered clouds.25 mph53%29.65 "Hg10 mi
11:54 am69 °FBroken clouds.16 mph66%29.66 "Hg10 mi
10:54 am65 °FLight rain. Partly sunny.16 mph73%29.65 "Hg10 mi
9:54 am68 °FMostly cloudy.25 mph68%29.62 "Hg10 mi
8:54 am68 °FMore clouds than sun.20 mph68%29.60 "Hg10 mi
7:54 am68 °FScattered clouds.17 mph68%29.59 "Hg10 mi
6:54 am64 °FPassing clouds.6 mph81%29.57 "Hg10 mi
5:54 am68 °FMostly cloudy.7 mph68%29.60 "Hg10 mi
4:54 am70 °FOvercast.10 mph61%29.60 "Hg10 mi
3:54 am67 °FPassing clouds.10 mph68%29.60 "Hg10 mi
2:54 am65 °FClear.7 mph70%29.61 "Hg10 mi
1:54 am68 °FClear.9 mph63%29.60 "Hg10 mi
12:54 am68 °FClear.10 mph61%29.59 "Hg10 mi
11:54 pm
Wed, Apr 26
71 °FClear.12 mph53%29.59 "Hg10 mi
10:54 pm71 °FClear.8 mph55%29.59 "Hg10 mi
Weather by CustomWeather, © 2017

See weather overviewHow to use our weather pages